[[{"header":{"parameterUnit":"m.s-1","parameterCategory":1,"la1":30.2991,"la2":30.254,"lo1":-89.0895,"lo2":-89.0444,"dy":0.0017,"dx":0.0017,"nx":28,"ny":28,"refTime":"2024-09-03T03:00:00:Z","depth":0,"parameterNumber":2,"parameterNumberName":"U-component_of_WINDS"},"data":[0,0,0,0,0,0,0,0,0,0,0,0,0,0,0,0,0,0,0,0,0,0,0,0,0,0,0,0,0,0,0,0,0,0,0,0,0,0,0,0,0,0,0,0,0,0,0,0,0,0,0,0,0,0,0,0,0,0,-7.1846,-7.1847,0,-7.1929,-7.193,-7.1931,-7.1755,-7.1749,-7.1743,-7.1738,-7.1826,-7.1833,-7.1841,0,0,0,0,0,0,0,0,0,0,0,0,0,-7.1536,-7.1542,-7.1846,-7.1847,-7.1848,-7.1929,-7.193,-7.1932,-7.1756,-7.1749,-7.1742,-7.1735,-7.1823,-7.1832,-7.1842,0,0,0,0,0,0,0,0,0,0,0,0,0,-7.165,-7.1545,-7.1846,-7.177,-7.1764,-7.1929,-7.193,-7.1932,-7.1757,-7.1749,-7.174,-7.1732,-7.182,-7.1832,-7.1843,-7.2086,0,0,-7.1878,-7.1883,0,0,0,0,0,0,0,0,-7.1644,-7.1662,-7.178,-7.1776,-7.1769,-7.1823,-7.1853,-7.1984,-7.1759,-7.176,-7.1738,-7.1728,-7.1832,-7.1842,-7.1877,-7.209,-7.2094,-7.1879,-7.1886,-7.1891,-7.1894,0,0,0,0,0,0,0,-7.1636,-7.1657,-7.1879,-7.1782,-7.1776,-7.1732,-7.1739,-7.1877,-7.1843,-7.1759,-7.1747,-7.1759,-7.1827,-7.1866,-7.1877,-7.2095,-7.1879,-7.1889,-7.1896,-7.1901,-7.2511,-7.252,0,0,0,0,0,0,-7.1638,-7.1652,-7.1876,-7.1881,-7.1684,-7.1745,-7.1752,-7.1814,-7.1841,-7.1837,-7.1766,-7.175,-7.185,-7.1864,-7.188,-7.2165,-7.1891,-7.1902,-7.1908,-7.2502,-7.2513,-7.2523,0,0,0,0,0,0,-7.1632,-7.1659,-7.1873,-7.1763,-7.1787,-7.1759,-7.183,-7.1821,-7.1859,-7.1846,-7.184,-7.1812,-7.1844,-7.1864,-7.2036,-7.2166,-7.1907,-7.1917,-7.2491,-7.2505,-7.2518,-7.2739,0,0,0,0,0,0,-7.1624,-7.1658,-7.175,-7.1767,-7.1794,-7.2028,-7.1838,-7.1828,-7.1879,-7.1859,-7.1887,-7.1884,-7.1839,-7.2019,-7.2047,-7.2177,-7.1926,-7.2479,-7.2497,-7.2514,-7.272,-7.2759,-7.2792,0,0,0,0,0,-7.1613,-7.181,-7.1756,-7.1784,-7.1908,-7.2036,-7.2051,-7.1995,-7.189,-7.1982,-7.1974,-7.1883,-7.2147,-7.2038,-7.2068,-7.2204,-7.2471,-7.2492,-7.2512,-7.2704,-7.2751,-7.2791,0,0,0,0,0,0,-7.1811,-7.1811,-7.1751,-7.1959,-7.1998,-7.2006,-7.212,-7.2047,-7.2118,-7.2097,-7.2024,-7.2032,-7.2218,-7.2228,-7.2107,-7.244,-7.2291,-7.2319,-7.2427,-7.2472,-7.2507,-7.2501,-7.1936,0,0,0,0,0,-7.1878,-7.1981,-7.1976,-7.216,-7.2183,-7.2149,-7.2202,-7.2155,-7.2194,-7.221,-7.2214,-7.2256,-7.2348,-7.241,-7.2494,-7.2721,-7.2724,-7.2828,-7.2864,-7.2894,-7.2919,-7.3039,-7.3085,-7.2592,-7.2592,-7.2591,0,0,-7.2019,-7.2032,-7.2102,-7.22,-7.2225,-7.2334,-7.2164,-7.2286,-7.2366,-7.2229,-7.2391,-7.2396,-7.2437,-7.2638,-7.2726,-7.2651,-7.3056,-7.2921,-7.2944,-7.2953,-7.3065,-7.3112,-7.3153,-7.2606,-7.2604,-7.2601,0,0,-7.2331,-7.2352,-7.2507,-7.2535,-7.2575,-7.2551,-7.2588,-7.2607,-7.2604,-7.2766,-7.2664,-7.2759,-7.2919,-7.2953,-7.2991,-7.3315,-7.3234,-7.3345,-7.3533,-7.365,-7.3689,-7.3723,-7.3838,-7.3881,-7.337,-7.337,-7.3371,0,-7.2502,-7.2661,-7.2596,-7.2725,-7.2771,-7.265,-7.2807,-7.2838,-7.2904,-7.2939,-7.2854,-7.3052,-7.3072,-7.3277,-7.3356,-7.3392,-7.3432,-7.3341,-7.3689,-7.3722,-7.3753,-7.3862,-7.3906,-7.3383,-7.3382,-7.3381,-7.3379,0,-7.2868,-7.298,-7.3101,-7.3166,-7.3226,-7.3369,-7.3325,-7.3393,-7.3341,-7.3326,-7.3492,-7.3511,-7.3596,-7.3642,-7.3593,-7.3841,-7.3793,-7.3701,-7.355,-7.3814,-7.3915,-7.3957,-7.3402,-7.3398,-7.3394,-7.339,0,0,-7.3308,-7.3335,-7.338,-7.3408,-7.3443,-7.3528,-7.3665,-7.3747,-7.3807,-7.3857,-7.397,-7.4108,-7.4021,-7.4065,-7.4018,-7.4122,-7.4377,-7.4015,-7.4015,-7.4081,-7.4651,-7.472,-7.477,-7.4323,-7.4331,-7.4337,-7.4647,0,-7.3616,-7.385,-7.3796,-7.4027,-7.413,-7.4016,-7.4135,-7.417,-7.416,-7.4245,-7.4233,-7.4332,-7.4211,-7.4236,-7.4333,-7.4325,-7.449,-7.4302,-7.4427,-7.4433,-7.442,-7.4822,-7.4897,-7.5188,-7.4686,-7.4693,-7.4698,0,-7.4008,-7.4071,-7.4313,-7.433,-7.4371,-7.4479,-7.4549,-7.4633,-7.467,-7.4655,-7.4703,-7.4636,-7.4772,-7.462,-7.4805,-7.4679,-7.4727,-7.4731,-7.4741,-7.475,-7.4581,-7.4842,-7.528,-7.5324,-7.4759,-7.4754,-7.475,0,-7.4303,-7.4449,-7.4612,-7.464,-7.4664,-7.4743,-7.4757,-7.4785,-7.4837,-7.49,-7.4933,-7.5011,-7.5054,-7.5116,-7.5072,-7.4965,-7.5265,-7.5109,-7.5256,-7.5258,-7.5324,-7.532,-7.5775,-7.5357,-7.5356,-7.5355,-7.5354,0,-7.4653,-7.4806,-7.4745,-7.4846,-7.5012,-7.4948,-7.5115,-7.5116,-7.5142,-7.5241,-7.5148,-7.5243,-7.5179,-7.5269,-7.5235,-7.5394,-7.5414,-7.5406,-7.5395,-7.5414,-7.5415,-7.5444,-7.5422,-7.5367,-7.5364,-7.5362,-7.536,0,-7.5012,-7.4977,-7.5147,-7.5156,-7.5162,-7.5285,-7.5292,-7.5385,-7.5368,-7.5494,-7.552,-7.5492,-7.5593,-7.5555,-7.5663,-7.564,-7.5842,-7.5805,-7.583,-7.582,-7.5968,-7.5955,-7.6458,-7.652,-7.6062,-7.6067,-7.607,0,-7.5237,-7.5351,-7.5372,-7.5431,-7.5451,-7.5548,-7.56,-7.5542,-7.5601,-7.5651,-7.5738,-7.583,-7.5901,-7.6067,-7.6057,-7.6139,-7.6103,-7.6273,-7.6114,-7.6129,-7.6104,-7.6098,-7.6109,-7.6305,-7.631,-7.6315,-7.6318,0,-7.564,-7.5617,-7.5697,-7.5771,-7.5837,-7.5893,-7.594,-7.5994,-7.5938,-7.6009,-7.611,-7.6165,-7.6274,-7.6366,-7.6439,-7.6453,-7.6378,-7.6368,-7.6406,-7.6427,-7.6436,-7.6432,-7.5916,-7.6357,-7.6353,-7.635,-7.6348,-7.6347,-7.5938,-7.6034,-7.6063,-7.6155,-7.6184,-7.6231,-7.6318,-7.6311,-7.6394,-7.6477,-7.6438,-7.6555,-7.6588,-7.6678,-7.6703,-7.6794,-7.6727,-7.6783,-7.6797,-7.6811,-7.683,-7.6422,-7.6807,-7.6806,-7.6805,-7.6804,-7.6803,0,-7.6336,-7.6349,-7.6434,-7.6503,-7.6575,-7.6496,-7.6544,-7.661,-7.6714,-7.6751,-7.6822,-7.6938,-7.7027,-7.7024,-7.7107,-7.718,-7.7147,-7.7204,-7.7198,-7.7202,-7.6885,-7.6844,-7.7229,-7.7229,-7.7229,-7.7229,-7.7229,-7.7229,-7.6551,-7.6709,-7.6689,-7.6861,-7.6872,-7.6985,-7.702,-7.7062,-7.7091,-7.7224,-7.7298,-7.7295,-7.7316,-7.7399,-7.7477,-7.7474,-7.7509,-7.7578,-7.7563,-7.7267,-7.7224,-7.7184,-7.7144,-7.7587,-7.7587,-7.7871,-7.7874,-7.7876]},{"header":{"parameterUnit":"m.s-1","parameterCategory":1,"la1":30.2991,"la2":30.254,"lo1":-89.0895,"lo2":-89.0444,"dy":0.0017,"dx":0.0017,"nx":28,"ny":28,"refTime":"2024-09-03T03:00:00:Z","depth":0,"parameterNumber":3,"parameterNumberName":"V-component_of_WINDS"},"data":[0,0,0,0,0,0,0,0,0,0,0,0,0,0,0,0,0,0,0,0,0,0,0,0,0,0,0,0,0,0,0,0,0,0,0,0,0,0,0,0,0,0,0,0,0,0,0,0,0,0,0,0,0,0,0,0,0,0,-1.3742,-1.3742,0,-1.3722,-1.3722,-1.3722,-1.3717,-1.3717,-1.3717,-1.3718,-1.3696,-1.3696,-1.3695,0,0,0,0,0,0,0,0,0,0,0,0,0,-1.3773,-1.3772,-1.3742,-1.3742,-1.3741,-1.3722,-1.3722,-1.3722,-1.3717,-1.3717,-1.3717,-1.3718,-1.3696,-1.3696,-1.3695,0,0,0,0,0,0,0,0,0,0,0,0,0,-1.3757,-1.3772,-1.3742,-1.3737,-1.3736,-1.3722,-1.3722,-1.3722,-1.3717,-1.3717,-1.3717,-1.3718,-1.3697,-1.3696,-1.3695,-1.3684,0,0,-1.3691,-1.3691,0,0,0,0,0,0,0,0,-1.3758,-1.3756,-1.3738,-1.3737,-1.3736,-1.3722,-1.3725,-1.3709,-1.3717,-1.3724,-1.3718,-1.3718,-1.3705,-1.3703,-1.3699,-1.3683,-1.3682,-1.3691,-1.3691,-1.369,-1.369,0,0,0,0,0,0,0,-1.3759,-1.3756,-1.3734,-1.3737,-1.3737,-1.3735,-1.3733,-1.3722,-1.3713,-1.3724,-1.3723,-1.3721,-1.3704,-1.37,-1.3698,-1.3682,-1.3691,-1.369,-1.369,-1.3689,-1.3655,-1.3654,0,0,0,0,0,0,-1.3761,-1.3757,-1.3735,-1.3733,-1.3748,-1.3734,-1.3732,-1.3727,-1.3714,-1.3712,-1.3721,-1.3721,-1.3702,-1.3699,-1.3698,-1.3683,-1.369,-1.3689,-1.3689,-1.3655,-1.3654,-1.3654,0,0,0,0,0,0,-1.3762,-1.3759,-1.3735,-1.3745,-1.3742,-1.3733,-1.3728,-1.3726,-1.3722,-1.3712,-1.371,-1.3718,-1.3702,-1.3699,-1.3687,-1.3682,-1.3689,-1.3688,-1.3655,-1.3655,-1.3654,-1.3655,0,0,0,0,0,0,-1.3763,-1.3759,-1.3756,-1.3745,-1.3742,-1.3726,-1.3727,-1.3726,-1.372,-1.372,-1.3708,-1.3707,-1.3702,-1.3689,-1.3686,-1.3681,-1.3687,-1.3656,-1.3655,-1.3654,-1.3655,-1.3654,-1.3654,0,0,0,0,0,-1.3764,-1.3757,-1.3756,-1.3753,-1.3737,-1.3726,-1.3724,-1.3718,-1.372,-1.3716,-1.3709,-1.3707,-1.3683,-1.3688,-1.3685,-1.3679,-1.3656,-1.3655,-1.3654,-1.3656,-1.3655,-1.3654,0,0,0,0,0,0,-1.3767,-1.3756,-1.3754,-1.3744,-1.3736,-1.3725,-1.372,-1.3718,-1.3709,-1.3709,-1.3702,-1.37,-1.3688,-1.3682,-1.3687,-1.3667,-1.3669,-1.3668,-1.3671,-1.367,-1.367,-1.3671,-1.3686,0,0,0,0,0,-1.3767,-1.3759,-1.3749,-1.3741,-1.3737,-1.3729,-1.3724,-1.3721,-1.3712,-1.3708,-1.3701,-1.3692,-1.3682,-1.3676,-1.3667,-1.3654,-1.3651,-1.3649,-1.3648,-1.3648,-1.3646,-1.3638,-1.3636,-1.3652,-1.3652,-1.3652,0,0,-1.3766,-1.3759,-1.3754,-1.3742,-1.3735,-1.3726,-1.3727,-1.3718,-1.3711,-1.3707,-1.3695,-1.3689,-1.3679,-1.3666,-1.366,-1.3661,-1.3641,-1.3647,-1.3647,-1.3646,-1.3637,-1.3635,-1.3634,-1.3651,-1.3652,-1.3652,0,0,-1.376,-1.3754,-1.3746,-1.3739,-1.3729,-1.3724,-1.3722,-1.3711,-1.3707,-1.3695,-1.3691,-1.3682,-1.3666,-1.3658,-1.3652,-1.3641,-1.3639,-1.3638,-1.3635,-1.3626,-1.3625,-1.3624,-1.3618,-1.3617,-1.3637,-1.3637,-1.3637,0,-1.376,-1.3748,-1.3742,-1.3733,-1.3727,-1.3723,-1.3714,-1.3707,-1.3695,-1.369,-1.3691,-1.367,-1.3662,-1.3647,-1.3644,-1.364,-1.3636,-1.364,-1.3626,-1.3624,-1.3623,-1.3618,-1.3616,-1.3637,-1.3637,-1.3637,-1.3637,0,-1.3748,-1.3739,-1.3733,-1.3721,-1.3714,-1.3705,-1.3697,-1.3691,-1.3687,-1.3681,-1.3668,-1.3659,-1.3647,-1.3643,-1.364,-1.3627,-1.3627,-1.3627,-1.3629,-1.3622,-1.3617,-1.3615,-1.3637,-1.3637,-1.3637,-1.3637,0,0,-1.3744,-1.3728,-1.3726,-1.3719,-1.3707,-1.37,-1.369,-1.3678,-1.3672,-1.3663,-1.3653,-1.3639,-1.3638,-1.3631,-1.3627,-1.362,-1.3609,-1.362,-1.362,-1.3617,-1.3592,-1.3592,-1.3589,-1.3608,-1.3607,-1.3607,-1.3593,0,-1.3736,-1.3719,-1.3713,-1.3698,-1.3689,-1.3684,-1.3675,-1.3666,-1.3659,-1.365,-1.3642,-1.3632,-1.3633,-1.3628,-1.362,-1.3612,-1.3604,-1.3613,-1.3597,-1.3597,-1.3599,-1.3587,-1.3587,-1.3574,-1.3591,-1.359,-1.359,0,-1.3724,-1.3715,-1.3699,-1.3686,-1.3682,-1.3674,-1.3662,-1.3653,-1.3642,-1.3638,-1.3629,-1.3625,-1.3613,-1.3616,-1.3598,-1.3604,-1.3597,-1.3592,-1.3591,-1.3589,-1.3593,-1.3583,-1.357,-1.3567,-1.3587,-1.3587,-1.3588,0,-1.3722,-1.3705,-1.3693,-1.3688,-1.3673,-1.3667,-1.3661,-1.365,-1.3642,-1.3631,-1.3626,-1.3614,-1.3607,-1.3597,-1.3589,-1.3592,-1.3571,-1.3574,-1.3566,-1.3566,-1.3561,-1.3562,-1.3545,-1.3558,-1.3559,-1.3559,-1.3559,0,-1.3713,-1.3703,-1.3692,-1.3684,-1.3672,-1.3665,-1.3653,-1.3646,-1.3636,-1.3626,-1.3621,-1.3612,-1.3602,-1.3591,-1.3584,-1.3569,-1.3566,-1.3562,-1.356,-1.3562,-1.3562,-1.3556,-1.3557,-1.3558,-1.3558,-1.3558,-1.3558,0,-1.3709,-1.3701,-1.3687,-1.3673,-1.367,-1.3662,-1.3649,-1.3641,-1.3634,-1.3621,-1.3618,-1.3607,-1.3593,-1.3584,-1.3567,-1.3562,-1.3545,-1.3544,-1.3549,-1.3548,-1.354,-1.3541,-1.3519,-1.3515,-1.3532,-1.3532,-1.3532,0,-1.3703,-1.3696,-1.3681,-1.3674,-1.3667,-1.3656,-1.3649,-1.364,-1.3632,-1.3617,-1.3611,-1.3597,-1.3585,-1.3563,-1.3553,-1.3539,-1.3537,-1.353,-1.3534,-1.3536,-1.3535,-1.3535,-1.3533,-1.3529,-1.3529,-1.3529,-1.3529,0,-1.3694,-1.369,-1.3679,-1.3667,-1.3657,-1.3647,-1.3637,-1.3631,-1.362,-1.3611,-1.3597,-1.3588,-1.357,-1.3555,-1.354,-1.3532,-1.3528,-1.3527,-1.3524,-1.3526,-1.3528,-1.3525,-1.3546,-1.3528,-1.3528,-1.3528,-1.3528,-1.3528,-1.3688,-1.3681,-1.3669,-1.3656,-1.3647,-1.3637,-1.3628,-1.3619,-1.3608,-1.3592,-1.3587,-1.3572,-1.3559,-1.3538,-1.353,-1.3517,-1.3517,-1.3514,-1.3512,-1.3511,-1.351,-1.3531,-1.3514,-1.3514,-1.3514,-1.3514,-1.3514,0,-1.3678,-1.367,-1.3658,-1.3643,-1.3633,-1.363,-1.3618,-1.3609,-1.3596,-1.3584,-1.3572,-1.3555,-1.354,-1.3528,-1.3513,-1.3504,-1.3502,-1.3501,-1.3501,-1.3498,-1.3512,-1.3515,-1.3503,-1.3503,-1.3503,-1.3503,-1.3503,-1.3503,-1.3671,-1.3657,-1.3652,-1.3632,-1.3624,-1.3609,-1.3602,-1.3592,-1.3582,-1.3563,-1.355,-1.3543,-1.353,-1.3513,-1.3499,-1.3495,-1.3489,-1.3488,-1.3484,-1.3496,-1.3498,-1.3499,-1.3502,-1.3487,-1.3487,-1.3471,-1.3471,-1.3471]}]]